When you browse on this site, cookies collect data to enhance your experience and personalize the content and advertising you see.
Visit our Privacy Policy to learn more. By continuing to use the site, you agree to this use of cookies and data.
  • In United Kingdom
  • List of Countries
  • For 7 days
  • Water Temperature
  • Satellite Maps
  • Weather Map
  • Weather Widgets
  • user-avatar
    Login

    Hourly Weather Pishky

    Today, 17 June, Monday

    Time Temperature Precipitation Wind Pressure Humidity
    00:00 +20°C° 0.1 mm 2 mps 746 mmHg 87%
    01:00 +19°C° 0.1 mm 2 mps 746 mmHg 88%
    02:00 +19°C° 0.1 mm 2 mps 746 mmHg 88%
    03:00 +20°C° 0 mm 1 mps 747 mmHg 88%
    04:00 +20°C° 0 mm 1 mps 747 mmHg 88%
    05:00 +20°C° 0 mm 1 mps 747 mmHg 88%
    06:00 +21°C° 0 mm 1 mps 747 mmHg 83%
    07:00 +23°C° 0 mm 1 mps 747 mmHg 79%
    08:00 +24°C° 0 mm 1 mps 747 mmHg 74%
    09:00 +25°C° 0 mm 1 mps 747 mmHg 69%
    10:00 +27°C° 0 mm 1 mps 747 mmHg 63%
    11:00 +28°C° 0 mm 1 mps 747 mmHg 57%
    12:00 +29°C° 0 mm 1 mps 747 mmHg 55%
    13:00 +29°C° 0 mm 1 mps 747 mmHg 54%
    14:00 +30°C° 0 mm 1 mps 747 mmHg 52%
    15:00 +29°C° 0.1 mm 1 mps 747 mmHg 55%
    16:00 +29°C° 0.1 mm 1 mps 747 mmHg 57%
    17:00 +29°C° 0.1 mm 1 mps 746 mmHg 60%
    18:00 +27°C° 0 mm 1 mps 746 mmHg 65%
    19:00 +25°C° 0 mm 2 mps 746 mmHg 71%
    20:00 +23°C° 0 mm 2 mps 746 mmHg 76%
    21:00 +23°C° 0 mm 2 mps 747 mmHg 76%
    22:00 +21°C° 0 mm 2 mps 747 mmHg 76%
    23:00 +21°C° 0 mm 2 mps 747 mmHg 76%

    Tomorrow, 18 June, Tuesday

    Time Temperature Precipitation Wind Pressure Humidity
    00:00 +20°C° 0.6 mm 2 mps 747 mmHg 79%
    01:00 +20°C° 0.6 mm 2 mps 747 mmHg 82%
    02:00 +20°C° 0.6 mm 2 mps 747 mmHg 84%
    03:00 +20°C° 0.3 mm 2 mps 747 mmHg 88%
    04:00 +20°C° 0.3 mm 2 mps 747 mmHg 91%
    05:00 +19°C° 0.3 mm 2 mps 747 mmHg 94%
    06:00 +20°C° 0 mm 3 mps 747 mmHg 94%
    07:00 +20°C° 0 mm 3 mps 747 mmHg 93%
    08:00 +21°C° 0 mm 3 mps 748 mmHg 92%
    09:00 +22°C° 0 mm 3 mps 748 mmHg 88%
    10:00 +24°C° 0 mm 3 mps 748 mmHg 84%
    11:00 +25°C° 0 mm 3 mps 748 mmHg 80%
    12:00 +26°C° 0 mm 3 mps 748 mmHg 75%
    13:00 +27°C° 0 mm 3 mps 747 mmHg 69%
    14:00 +28°C° 0 mm 3 mps 747 mmHg 64%
    15:00 +27°C° 0 mm 3 mps 747 mmHg 65%
    16:00 +27°C° 0 mm 3 mps 747 mmHg 65%
    17:00 +27°C° 0 mm 3 mps 747 mmHg 66%
    18:00 +26°C° 0 mm 3 mps 747 mmHg 72%
    19:00 +24°C° 0 mm 2 mps 747 mmHg 77%
    20:00 +23°C° 0 mm 2 mps 747 mmHg 83%
    21:00 +21°C° 0 mm 2 mps 747 mmHg 85%
    22:00 +20°C° 0 mm 2 mps 747 mmHg 87%
    23:00 +19°C° 0 mm 2 mps 747 mmHg 89%

    Day after tomorrow, 19 June, Wednesday

    Time Temperature Precipitation Wind Pressure Humidity
    00:00 +19°C° 0 mm 2 mps 747 mmHg 91%
    01:00 +18°C° 0 mm 2 mps 747 mmHg 93%
    02:00 +18°C° 0 mm 2 mps 747 mmHg 94%
    03:00 +18°C° 0 mm 2 mps 747 mmHg 95%
    04:00 +18°C° 0 mm 2 mps 747 mmHg 96%
    05:00 +18°C° 0 mm 2 mps 747 mmHg 96%
    06:00 +20°C° 0 mm 3 mps 747 mmHg 91%
    07:00 +21°C° 0 mm 3 mps 747 mmHg 86%
    08:00 +24°C° 0 mm 3 mps 747 mmHg 81%
    09:00 +25°C° 0 mm 3 mps 747 mmHg 77%
    10:00 +26°C° 0 mm 3 mps 748 mmHg 72%
    11:00 +27°C° 0 mm 3 mps 748 mmHg 68%
    12:00 +27°C° 0.1 mm 4 mps 747 mmHg 66%
    13:00 +28°C° 0.1 mm 4 mps 747 mmHg 64%
    14:00 +28°C° 0.1 mm 4 mps 747 mmHg 62%
    15:00 +28°C° 0.1 mm 4 mps 747 mmHg 64%
    16:00 +28°C° 0.1 mm 4 mps 747 mmHg 66%
    17:00 +27°C° 0.1 mm 4 mps 746 mmHg 68%
    18:00 +26°C° 0 mm 4 mps 746 mmHg 72%
    19:00 +24°C° 0 mm 3 mps 746 mmHg 77%
    20:00 +22°C° 0 mm 3 mps 746 mmHg 81%
    21:00 +21°C° 0 mm 3 mps 747 mmHg 83%
    22:00 +20°C° 0 mm 3 mps 747 mmHg 85%
    23:00 +19°C° 0 mm 3 mps 747 mmHg 87%

    20 June, Thursday

    Time Temperature Precipitation Wind Pressure Humidity
    00:00 +19°C° 0 mm 3 mps 747 mmHg 89%
    01:00 +18°C° 0 mm 3 mps 747 mmHg 91%
    02:00 +18°C° 0 mm 3 mps 747 mmHg 93%
    03:00 +18°C° 0 mm 2 mps 747 mmHg 92%
    04:00 +18°C° 0 mm 2 mps 747 mmHg 92%
    05:00 +18°C° 0 mm 2 mps 747 mmHg 92%
    06:00 +20°C° 0 mm 3 mps 747 mmHg 87%
    07:00 +21°C° 0 mm 3 mps 747 mmHg 81%
    08:00 +24°C° 0 mm 3 mps 748 mmHg 75%
    09:00 +25°C° 0 mm 4 mps 748 mmHg 70%
    10:00 +26°C° 0 mm 4 mps 748 mmHg 64%
    11:00 +27°C° 0 mm 4 mps 748 mmHg 59%
    12:00 +28°C° 0 mm 4 mps 748 mmHg 58%
    13:00 +28°C° 0 mm 4 mps 747 mmHg 56%
    14:00 +28°C° 0 mm 4 mps 747 mmHg 55%
    15:00 +28°C° 0 mm 4 mps 747 mmHg 57%
    16:00 +28°C° 0 mm 3 mps 747 mmHg 58%
    17:00 +28°C° 0 mm 3 mps 747 mmHg 60%
    18:00 +26°C° 0 mm 3 mps 747 mmHg 64%
    19:00 +24°C° 0 mm 2 mps 747 mmHg 69%
    20:00 +21°C° 0 mm 2 mps 747 mmHg 73%
    21:00 +20°C° 0 mm 2 mps 748 mmHg 76%
    22:00 +20°C° 0 mm 2 mps 748 mmHg 79%
    23:00 +19°C° 0 mm 2 mps 748 mmHg 83%

    21 June, Friday

    Time Temperature Precipitation Wind Pressure Humidity
    00:00 +19°C° 0 mm 2 mps 748 mmHg 85%
    01:00 +18°C° 0 mm 2 mps 748 mmHg 87%
    02:00 +18°C° 0 mm 2 mps 748 mmHg 89%
    03:00 +18°C° 0 mm 2 mps 748 mmHg 89%
    04:00 +18°C° 0 mm 2 mps 748 mmHg 89%
    05:00 +19°C° 0 mm 1 mps 748 mmHg 89%
    06:00 +20°C° 0 mm 2 mps 748 mmHg 83%
    07:00 +23°C° 0 mm 2 mps 749 mmHg 78%
    08:00 +25°C° 0 mm 3 mps 749 mmHg 73%
    09:00 +26°C° 0 mm 3 mps 749 mmHg 67%
    10:00 +27°C° 0 mm 3 mps 749 mmHg 62%
    11:00 +28°C° 0 mm 3 mps 749 mmHg 57%
    12:00 +29°C° 0 mm 3 mps 749 mmHg 56%
    13:00 +29°C° 0 mm 3 mps 749 mmHg 55%
    14:00 +29°C° 0 mm 3 mps 748 mmHg 53%
    15:00 +29°C° 0 mm 3 mps 748 mmHg 55%
    16:00 +29°C° 0 mm 3 mps 748 mmHg 56%
    17:00 +28°C° 0 mm 3 mps 748 mmHg 58%
    18:00 +26°C° 0 mm 2 mps 748 mmHg 62%
    19:00 +25°C° 0 mm 2 mps 748 mmHg 67%
    20:00 +23°C° 0 mm 2 mps 748 mmHg 71%
    21:00 +21°C° 0 mm 2 mps 748 mmHg 71%
    22:00 +20°C° 0 mm 2 mps 748 mmHg 71%
    23:00 +20°C° 0 mm 2 mps 748 mmHg 71%

    22 June, Saturday

    Time Temperature Precipitation Wind Pressure Humidity
    00:00 +19°C° 0 mm 2 mps 748 mmHg 74%
    01:00 +19°C° 0 mm 2 mps 748 mmHg 78%
    02:00 +18°C° 0 mm 2 mps 748 mmHg 81%
    03:00 +18°C° 0 mm 2 mps 748 mmHg 83%
    04:00 +19°C° 0 mm 1 mps 748 mmHg 84%
    05:00 +20°C° 0 mm 1 mps 748 mmHg 85%
    06:00 +20°C° 0 mm 2 mps 749 mmHg 80%
    07:00 +23°C° 0 mm 2 mps 749 mmHg 75%
    08:00 +25°C° 0 mm 3 mps 749 mmHg 70%
    09:00 +26°C° 0 mm 3 mps 749 mmHg 65%
    10:00 +28°C° 0 mm 3 mps 749 mmHg 59%
    11:00 +29°C° 0 mm 3 mps 749 mmHg 53%
    12:00 +29°C° 0 mm 3 mps 749 mmHg 52%
    13:00 +30°C° 0 mm 3 mps 748 mmHg 52%
    14:00 +30°C° 0 mm 3 mps 748 mmHg 51%
    15:00 +30°C° 0 mm 3 mps 748 mmHg 53%
    16:00 +30°C° 0 mm 3 mps 748 mmHg 56%
    17:00 +29°C° 0 mm 2 mps 748 mmHg 58%
    18:00 +28°C° 0 mm 2 mps 748 mmHg 62%
    19:00 +26°C° 0 mm 2 mps 748 mmHg 67%
    20:00 +24°C° 0 mm 2 mps 748 mmHg 71%
    21:00 +24°C° 0 mm 2 mps 748 mmHg 72%
    22:00 +23°C° 0 mm 2 mps 748 mmHg 73%
    23:00 +21°C° 0 mm 2 mps 748 mmHg 73%
    Show more